EST,Max TemperatureF,Mean TemperatureF,Min TemperatureF,Max Dew PointF,MeanDew PointF,Min DewpointF,Max Humidity, Mean Humidity, Min Humidity, Max Sea Level PressureIn, Mean Sea Level PressureIn, Min Sea Level PressureIn, Max VisibilityMiles, Mean VisibilityMiles, Min VisibilityMiles, Max Wind SpeedMPH, Mean Wind SpeedMPH, Max Gust SpeedMPH,PrecipitationIn, CloudCover, Events, WindDirDegrees
2013-1-1,28,18,8,22,6,-5,78,55,39,29.84,29.71,29.59,10,10,8,23,10,37,0.00,2,,278
2013-1-2,17,9,0,0,-5,-12,63,52,40,30.03,29.90,29.82,10,9,2,22,11,31,0.00,1,,287
2013-1-3,19,10,0,-2,-6,-11,61,51,38,30.08,30.02,29.93,10,10,10,10,6,,0.00,2,,284
2013-1-4,30,18,5,21,10,-4,80,70,61,29.91,29.79,29.70,10,10,8,7,4,,0.00,4,,200
2013-1-5,32,24,12,22,11,5,78,56,39,30.26,30.03,29.71,10,10,10,18,8,32,0.00,1,,276
2013-1-6,28,20,12,20,13,5,88,78,64,30.22,30.02,29.92,10,8,1,5,2,,0.01,5,Snow,1
2013-1-7,23,19,15,20,13,7,93,78,55,30.40,30.18,29.94,10,8,2,14,7,21,0.00,6,Snow,22
2013-1-8,36,24,12,23,18,8,88,68,50,30.36,30.26,30.19,10,10,10,14,6,24,0.00,0,,233
2013-1-9,34,28,21,29,23,18,92,78,69,30.40,30.17,29.87,10,8,5,10,3,,0.00,3,Snow,193
2013-1-10,41,34,26,28,22,17,73,57,47,30.53,30.22,29.88,10,10,10,30,15,53,0.00,1,,306
2013-1-11,34,28,21,25,18,15,78,65,48,30.54,30.40,30.24,10,10,10,7,4,,0.00,3,,117
2013-1-12,37,34,32,37,34,26,100,96,79,30.24,30.17,30.10,10,2,0,7,3,,0.03,8,Fog,169
2013-1-13,42,38,36,41,38,36,100,99,93,30.14,30.07,29.93,2,0,0,8,3,17,0.02,8,Fog,201
2013-1-14,53,44,35,46,37,21,100,83,42,30.19,29.97,29.85,10,5,0,21,5,33,0.03,2,Fog-Rain,274
2013-1-15,35,32,28,21,19,16,64,58,50,30.31,30.27,30.22,10,10,10,9,5,,0.00,4,,331
2013-1-16,28,27,26,27,24,16,100,90,61,30.26,29.96,29.77,10,3,0,9,5,,0.25,7,Fog-Snow,9
2013-1-17,37,24,10,27,16,-6,100,72,36,30.15,29.90,29.74,10,9,2,15,5,28,0.00,2,Snow,281
2013-1-18,14,8,1,-5,-9,-14,63,46,32,30.40,30.28,30.13,10,10,10,15,8,22,0.00,0,,297
2013-1-19,32,20,8,21,13,-4,93,67,52,30.34,30.08,29.85,10,8,1,12,5,20,0.00,7,Snow,212
2013-1-20,42,32,19,31,20,4,89,61,36,29.83,29.63,29.42,10,10,9,20,6,34,0.01,3,,251
2013-1-21,21,14,8,1,-4,-7,57,43,29,30.04,29.95,29.86,10,10,10,12,7,21,0.00,2,,319
2013-1-22,12,9,3,0,-4,-18,76,57,36,30.02,29.87,29.80,10,9,2,12,8,22,0.00,5,Snow,356
2013-1-23,3,0,-5,-16,-19,-21,49,41,35,30.07,30.04,30.01,10,10,10,16,11,28,0.00,0,,290
2013-1-24,10,2,-6,-13,-17,-21,54,44,30,30.09,30.01,29.92,10,10,10,20,12,37,0.00,1,,289
2013-1-25,14,8,1,-3,-7,-12,60,51,41,30.19,30.13,30.08,10,10,10,15,9,23,0.00,1,,296
2013-1-26,18,10,3,-2,-6,-11,66,48,30,30.11,30.05,29.98,10,10,10,15,6,23,0.00,3,,324
2013-1-27,21,14,6,-1,-5,-8,61,47,34,30.41,30.29,30.11,10,10,10,16,9,23,0.00,1,,322
2013-1-28,24,16,7,18,3,-10,93,59,22,30.42,30.25,30.09,10,8,2,7,3,,0.03,6,Snow,274
2013-1-29,32,22,12,27,18,10,96,80,59,30.22,30.16,30.08,10,10,5,5,2,,0.00,3,Snow,262
2013-1-30,50,40,30,49,38,28,100,98,93,30.13,29.82,29.43,4,1,0,12,6,22,0.25,8,Fog-Rain,192
2013-1-31,55,42,28,54,41,5,100,81,37,29.41,29.12,28.81,10,6,0,26,14,51,0.32,7,Fog-Rain,211